Time,TemperatureF,DewpointF,PressureIn,WindDirection,WindDirectionDegrees,WindSpeedMPH,WindSpeedGustMPH,Humidity,HourlyPrecipIn,Conditions,Clouds,dailyrainin,SoftwareType,DateUTC
2013-11-12 00:16:00,35.4,31.9,30.05,WNW,292,0.0,-999.0,87,-99.99,,,0.00,Acu-Link.com,2013-11-12 05:16:00,
2013-11-12 00:31:00,35.2,32.0,30.04,SSW,202,0.0,-999.0,88,-99.99,,,0.00,Acu-Link.com,2013-11-12 05:31:00,
2013-11-12 00:46:00,34.9,31.4,30.03,WNW,292,0.0,-999.0,87,-99.99,,,0.00,Acu-Link.com,2013-11-12 05:46:00,
2013-11-12 01:02:00,34.9,31.7,30.04,SSE,157,0.0,-999.0,88,-99.99,,,0.00,Acu-Link.com,2013-11-12 06:02:00,
2013-11-12 01:17:00,34.7,31.2,30.05,SSE,157,0.0,-999.0,87,-99.99,,,0.00,Acu-Link.com,2013-11-12 06:17:00,
2013-11-12 01:32:00,34.7,31.2,30.05,SSE,157,0.0,-999.0,87,-99.99,,,0.00,Acu-Link.com,2013-11-12 06:32:00,
2013-11-12 01:47:00,34.3,30.8,30.04,SSE,157,0.0,-999.0,87,-99.99,,,0.00,Acu-Link.com,2013-11-12 06:47:00,
2013-11-12 02:02:00,34.3,30.8,30.03,SSE,157,0.0,-999.0,87,-99.99,,,0.00,Acu-Link.com,2013-11-12 07:02:00,
2013-11-12 02:17:00,34.7,32.9,30.03,SSE,157,0.0,-999.0,93,-99.99,,,0.00,Acu-Link.com,2013-11-12 07:17:00,
2013-11-12 02:32:00,35.1,32.2,30.02,SSE,157,0.0,-999.0,89,-99.99,,,0.00,Acu-Link.com,2013-11-12 07:32:00,
2013-11-12 02:47:00,35.1,32.2,30.02,SSE,157,0.0,-999.0,89,-99.99,,,0.00,Acu-Link.com,2013-11-12 07:47:00,
2013-11-12 03:02:00,34.9,32.0,30.02,South,180,0.0,-999.0,89,-99.99,,,0.00,Acu-Link.com,2013-11-12 08:02:00,
2013-11-12 03:18:00,34.7,31.8,30.01,SSE,157,0.0,-999.0,89,-99.99,,,0.00,Acu-Link.com,2013-11-12 08:18:00,
2013-11-12 03:33:00,34.5,31.6,30.01,SSE,157,0.0,-999.0,89,-99.99,,,0.00,Acu-Link.com,2013-11-12 08:33:00,
2013-11-12 03:48:00,34.3,31.4,30.00,SSE,157,0.0,-999.0,89,-99.99,,,0.00,Acu-Link.com,2013-11-12 08:48:00,
2013-11-12 04:03:00,34.9,34.4,29.99,WNW,292,0.0,-999.0,98,-99.99,,,0.00,Acu-Link.com,2013-11-12 09:03:00,
2013-11-12 04:18:00,35.4,34.9,30.00,ENE,67,0.0,-999.0,98,-99.99,,,0.00,Acu-Link.com,2013-11-12 09:18:00,
2013-11-12 04:33:00,35.8,35.3,29.99,West,270,0.0,-999.0,98,-99.99,,,0.00,Acu-Link.com,2013-11-12 09:33:00,
2013-11-12 04:48:00,36.1,35.6,29.99,NW,315,0.0,-999.0,98,-99.99,,,0.00,Acu-Link.com,2013-11-12 09:48:00,
2013-11-12 05:03:00,36.3,35.8,29.99,WNW,292,0.0,-999.0,98,-99.99,,,0.00,Acu-Link.com,2013-11-12 10:03:00,
2013-11-12 05:18:00,36.3,35.8,29.99,NW,315,0.0,-999.0,98,-99.99,,,0.00,Acu-Link.com,2013-11-12 10:18:00,
2013-11-12 05:34:00,36.1,35.6,29.98,East,90,0.0,-999.0,98,-99.99,,,0.00,Acu-Link.com,2013-11-12 10:34:00,
2013-11-12 05:49:00,36.0,35.5,29.98,NW,315,0.0,-999.0,98,-99.99,,,0.00,Acu-Link.com,2013-11-12 10:49:00,
2013-11-12 06:04:00,35.8,35.3,29.99,West,270,0.0,-999.0,98,-99.99,,,0.00,Acu-Link.com,2013-11-12 11:04:00,
2013-11-12 06:19:00,35.8,35.3,29.99,SW,225,0.0,-999.0,98,-99.99,,,0.00,Acu-Link.com,2013-11-12 11:19:00,
2013-11-12 06:34:00,36.3,35.8,29.98,SSW,202,1.1,-999.0,98,-99.99,,,0.00,Acu-Link.com,2013-11-12 11:34:00,
2013-11-12 06:49:00,36.7,36.2,29.99,East,90,0.0,-999.0,98,-99.99,,,0.00,Acu-Link.com,2013-11-12 11:49:00,
2013-11-12 07:04:00,37.0,36.5,29.99,West,270,0.0,-999.0,98,-99.99,,,0.00,Acu-Link.com,2013-11-12 12:04:00,
2013-11-12 07:19:00,37.9,37.4,29.99,ENE,67,0.0,-999.0,98,-99.99,,,0.00,Acu-Link.com,2013-11-12 12:19:00,
2013-11-12 07:34:00,38.5,38.0,29.99,ESE,112,0.0,-999.0,98,-99.99,,,0.00,Acu-Link.com,2013-11-12 12:34:00,
2013-11-12 07:49:00,39.2,38.7,30.00,ESE,112,0.0,-999.0,98,-99.99,,,0.00,Acu-Link.com,2013-11-12 12:49:00,
2013-11-12 08:05:00,39.6,39.1,30.00,ESE,112,0.0,-999.0,98,-99.99,,,0.00,Acu-Link.com,2013-11-12 13:05:00,
2013-11-12 08:20:00,40.3,39.8,29.99,SSW,202,0.0,-999.0,98,-99.99,,,0.00,Acu-Link.com,2013-11-12 13:20:00,
2013-11-12 08:35:00,41.0,40.5,30.00,WSW,247,0.0,-999.0,98,-99.99,,,0.00,Acu-Link.com,2013-11-12 13:35:00,
2013-11-12 08:50:00,43.9,43.4,30.00,NW,315,0.0,-999.0,98,-99.99,,,0.00,Acu-Link.com,2013-11-12 13:50:00,
2013-11-12 09:05:00,49.5,44.9,29.99,ESE,112,0.0,-999.0,84,-99.99,,,0.00,Acu-Link.com,2013-11-12 14:05:00,
2013-11-12 09:20:00,50.7,44.4,30.00,West,270,0.0,-999.0,79,-99.99,,,0.00,Acu-Link.com,2013-11-12 14:20:00,
2013-11-12 09:36:00,53.8,36.1,29.99,NNW,337,1.7,-999.0,51,-99.99,,,0.00,Acu-Link.com,2013-11-12 14:36:00,
2013-11-12 09:51:00,57.9,33.1,29.99,SW,225,3.7,-999.0,39,-99.99,,,0.00,Acu-Link.com,2013-11-12 14:51:00,
2013-11-12 10:06:00,59.9,28.4,30.00,NNE,22,3.2,-999.0,30,-99.99,,,0.00,Acu-Link.com,2013-11-12 15:06:00,
2013-11-12 10:21:00,62.1,27.7,30.00,ENE,67,1.1,-999.0,27,-99.99,,,0.00,Acu-Link.com,2013-11-12 15:21:00,
2013-11-12 10:36:00,63.1,29.5,30.00,North,0,1.1,-999.0,28,-99.99,,,0.00,Acu-Link.com,2013-11-12 15:36:00,
2013-11-12 10:51:00,63.1,27.7,30.00,SSW,202,1.7,-999.0,26,-99.99,,,0.00,Acu-Link.com,2013-11-12 15:51:00,
2013-11-12 11:06:00,63.7,30.9,30.00,WSW,247,3.2,-999.0,29,-99.99,,,0.00,Acu-Link.com,2013-11-12 16:06:00,
2013-11-12 11:21:00,64.4,30.6,30.00,East,90,4.7,-999.0,28,-99.99,,,0.00,Acu-Link.com,2013-11-12 16:21:00,
2013-11-12 11:36:00,64.9,31.0,30.00,East,90,1.7,-999.0,28,-99.99,,,0.00,Acu-Link.com,2013-11-12 16:36:00,
2013-11-12 11:52:00,65.5,31.5,29.99,West,270,2.7,-999.0,28,-99.99,,,0.00,Acu-Link.com,2013-11-12 16:52:00,
2013-11-12 12:07:00,66.4,33.2,29.99,West,270,2.2,-999.0,29,-99.99,,,0.00,Acu-Link.com,2013-11-12 17:07:00,
2013-11-12 12:22:00,66.9,35.3,29.99,NNW,337,2.2,-999.0,31,-99.99,,,0.00,Acu-Link.com,2013-11-12 17:22:00,
2013-11-12 12:37:00,66.4,35.6,29.99,South,180,2.2,-999.0,32,-99.99,,,0.00,Acu-Link.com,2013-11-12 17:37:00,
2013-11-12 12:52:00,65.7,36.6,29.99,WNW,292,8.3,-999.0,34,-99.99,,,0.00,Acu-Link.com,2013-11-12 17:52:00,
2013-11-12 13:07:00,64.8,37.2,29.99,SSE,157,5.8,-999.0,36,-99.99,,,0.00,Acu-Link.com,2013-11-12 18:07:00,
2013-11-12 13:23:00,65.7,36.6,29.99,ESE,112,1.7,-999.0,34,-99.99,,,0.00,Acu-Link.com,2013-11-12 18:23:00,
2013-11-12 13:38:00,64.0,37.9,30.00,SW,225,2.2,-999.0,38,-99.99,,,0.00,Acu-Link.com,2013-11-12 18:38:00,
2013-11-12 13:53:00,62.6,36.6,30.01,NNW,337,3.2,-999.0,38,-99.99,,,0.00,Acu-Link.com,2013-11-12 18:53:00,
2013-11-12 14:08:00,61.9,36.7,30.01,West,270,1.7,-999.0,39,-99.99,,,0.00,Acu-Link.com,2013-11-12 19:08:00,
2013-11-12 14:23:00,60.6,35.5,30.01,West,270,2.7,-999.0,39,-99.99,,,0.00,Acu-Link.com,2013-11-12 19:23:00,
2013-11-12 14:38:00,59.7,35.3,30.02,SSW,202,4.7,-999.0,40,-99.99,,,0.00,Acu-Link.com,2013-11-12 19:38:00,
2013-11-12 14:53:00,58.1,34.5,30.02,NNE,22,2.2,-999.0,41,-99.99,,,0.00,Acu-Link.com,2013-11-12 19:53:00,
2013-11-12 15:08:00,56.8,34.0,30.03,NNW,337,2.2,-999.0,42,-99.99,,,0.00,Acu-Link.com,2013-11-12 20:08:00,
2013-11-12 15:23:00,55.8,33.6,30.03,South,180,1.7,-999.0,43,-99.99,,,0.00,Acu-Link.com,2013-11-12 20:23:00,
2013-11-12 15:38:00,54.9,33.4,30.04,West,270,1.7,-999.0,44,-99.99,,,0.00,Acu-Link.com,2013-11-12 20:38:00,
2013-11-12 15:54:00,53.8,32.4,30.05,NNW,337,1.7,-999.0,44,-99.99,,,0.00,Acu-Link.com,2013-11-12 20:54:00,
2013-11-12 16:09:00,52.9,31.6,30.07,SSW,202,1.1,-999.0,44,-99.99,,,0.00,Acu-Link.com,2013-11-12 21:09:00,
2013-11-12 16:24:00,51.4,29.1,30.08,ESE,112,1.7,-999.0,42,-99.99,,,0.00,Acu-Link.com,2013-11-12 21:24:00,
2013-11-12 16:39:00,49.8,27.6,30.09,ENE,67,1.7,-999.0,42,-99.99,,,0.00,Acu-Link.com,2013-11-12 21:39:00,
2013-11-12 16:54:00,48.9,27.4,30.10,ESE,112,1.7,-999.0,43,-99.99,,,0.00,Acu-Link.com,2013-11-12 21:54:00,
2013-11-12 17:09:00,47.8,26.4,30.13,ESE,112,1.7,-999.0,43,-99.99,,,0.00,Acu-Link.com,2013-11-12 22:09:00,
2013-11-12 17:24:00,46.8,25.5,30.14,SSW,202,5.8,-999.0,43,-99.99,,,0.00,Acu-Link.com,2013-11-12 22:24:00,
2013-11-12 17:39:00,45.9,24.7,30.15,ESE,112,1.7,-999.0,43,-99.99,,,0.00,Acu-Link.com,2013-11-12 22:39:00,
2013-11-12 17:54:00,45.3,24.7,30.16,South,180,2.7,-999.0,44,-99.99,,,0.00,Acu-Link.com,2013-11-12 22:54:00,
2013-11-12 18:10:00,44.4,22.8,30.18,NE,45,1.7,-999.0,42,-99.99,,,0.00,Acu-Link.com,2013-11-12 23:10:00,
2013-11-12 18:25:00,43.7,21.6,30.20,ESE,112,2.2,-999.0,41,-99.99,,,0.00,Acu-Link.com,2013-11-12 23:25:00,
2013-11-12 18:40:00,43.0,21.5,30.21,ENE,67,2.2,-999.0,42,-99.99,,,0.00,Acu-Link.com,2013-11-12 23:40:00,
2013-11-12 18:55:00,42.1,21.8,30.22,NE,45,2.2,-999.0,44,-99.99,,,0.00,Acu-Link.com,2013-11-12 23:55:00,
2013-11-12 19:10:00,41.0,21.3,30.22,South,180,2.2,-999.0,45,-99.99,,,0.00,Acu-Link.com,2013-11-13 00:10:00,
2013-11-12 19:25:00,40.1,20.0,30.23,West,270,3.2,-999.0,44,-99.99,,,0.00,Acu-Link.com,2013-11-13 00:25:00,
2013-11-12 19:40:00,39.6,19.5,30.24,SSW,202,1.1,-999.0,44,-99.99,,,0.00,Acu-Link.com,2013-11-13 00:40:00,
2013-11-12 19:55:00,39.0,18.4,30.26,SE,135,2.7,-999.0,43,-99.99,,,0.00,Acu-Link.com,2013-11-13 00:55:00,
2013-11-12 20:10:00,37.8,17.3,30.27,ESE,112,1.1,-999.0,43,-99.99,,,0.00,Acu-Link.com,2013-11-13 01:10:00,
2013-11-12 20:26:00,36.7,17.4,30.28,ESE,112,2.7,-999.0,45,-99.99,,,0.00,Acu-Link.com,2013-11-13 01:26:00,
2013-11-12 20:41:00,35.8,15.5,30.30,SE,135,2.7,-999.0,43,-99.99,,,0.00,Acu-Link.com,2013-11-13 01:41:00,
2013-11-12 20:56:00,35.1,15.4,30.32,ESE,112,1.1,-999.0,44,-99.99,,,0.00,Acu-Link.com,2013-11-13 01:56:00,
2013-11-12 21:11:00,34.2,14.6,30.33,NE,45,1.7,-999.0,44,-99.99,,,0.00,Acu-Link.com,2013-11-13 02:11:00,
2013-11-12 21:26:00,33.8,14.7,30.34,East,90,0.0,-999.0,45,-99.99,,,0.00,Acu-Link.com,2013-11-13 02:26:00,
2013-11-12 21:41:00,33.3,14.3,30.35,ENE,67,0.0,-999.0,45,-99.99,,,0.00,Acu-Link.com,2013-11-13 02:41:00,
2013-11-12 21:56:00,32.7,13.7,30.36,ENE,67,0.0,-999.0,45,-99.99,,,0.00,Acu-Link.com,2013-11-13 02:56:00,
2013-11-12 22:11:00,32.2,13.8,30.36,ESE,112,1.1,-999.0,46,-99.99,,,0.00,Acu-Link.com,2013-11-13 03:11:00,
2013-11-12 22:26:00,31.6,13.7,30.36,SE,135,1.1,-999.0,47,-99.99,,,0.00,Acu-Link.com,2013-11-13 03:26:00,
2013-11-12 22:42:00,30.9,13.5,30.36,ESE,112,1.7,-999.0,48,-99.99,,,0.00,Acu-Link.com,2013-11-13 03:42:00,
2013-11-12 22:57:00,30.6,14.2,30.36,ESE,112,0.0,-999.0,50,-99.99,,,0.00,Acu-Link.com,2013-11-13 03:57:00,
2013-11-12 23:12:00,29.8,14.3,30.37,ESE,112,0.0,-999.0,52,-99.99,,,0.00,Acu-Link.com,2013-11-13 04:12:00,
2013-11-12 23:27:00,29.1,14.1,30.36,East,90,0.0,-999.0,53,-99.99,,,0.00,Acu-Link.com,2013-11-13 04:27:00,
2013-11-12 23:42:00,28.6,14.1,30.36,NW,315,0.0,-999.0,54,-99.99,,,0.00,Acu-Link.com,2013-11-13 04:42:00,
2013-11-12 23:57:00,28.2,14.5,30.36,ESE,112,1.7,-999.0,56,-99.99,,,0.00,Acu-Link.com,2013-11-13 04:57:00,